Location: Dompnac
(44.5644°N, 4.1026°E)
Time: 11:37:01
(UTC+00:00)

Meteor 1-15 Rocket - Pass Details

Date: 19 September 2020
Orbit: 840 x 907 km, 81.2° (Epoch: 29 October)

Event Time Altitude Azimuth Distance (km) Brightness Sun altitude
Rises 19:44:35 0° 188° (S) 3,391 7.2 -21.3°
Reaches altitude 10° 19:46:58 10° 188° (S) 2,466 6.5 -21.7°
Maximum altitude 19:52:34 89° 99° (E) 864 4.1 -22.6°
Drops below altitude 10° 19:58:18 10° 11° (N) 2,524 6.8 -23.5°
Sets 20:00:46 0° 11° (NNE) 3,476 7.6 -23.9°
